"Pseudo-MPEC" for P22icZp

Created 2025 Dec 10 4:35:11 UT using Find_Orb

Click here for an explanation of pseudo-MPECs

 
 Astrometry: 
     P22icZp 1C2022 10 25.36870303 41 16.656+13 03 22.28   ~CA1Z 22.26GVNEOCPV00
     P22icZp 1C2022 10 25.37361403 41 16.620+13 03 22.25   ~CA1Z 22.00GVNEOCPV00
     P22icZp 1C2022 10 25.37851503 41 16.588+13 03 22.00   ~CA1Z 22.67GVNEOCPV00
     P22icZp 1C2022 10 25.38341803 41 16.501+13 03 21.78   ~CA1Z 22.90GVNEOCPV00
     P22icZp 1C2023 11 13.38357004 02 23.930+15 03 15.30   ~CA1Z       VNEOCPV00
     P22icZp 1C2023 11 13.38908804 02 23.852+15 03 15.44   ~CA1Z 22.31GVNEOCPV00
     P22icZp  C2025 09 05.60579405 04 51.497+19 28 18.76   ~CA15 22.98GVNEOCPF51
     P22icZp  C2025 09 05.60661705 04 51.490+19 28 18.79   ~CA15 21.99GVNEOCPF52
     P22icZp  C2025 09 05.61169605 04 51.523+19 28 18.85   ~CA15 21.79GVNEOCPF52
     P22icZp  C2025 09 05.61677805 04 51.547+19 28 18.82   ~CA15 21.81GVNEOCPF52
     P22icZp  C2025 09 05.62185005 04 51.590+19 28 18.74   ~CA15 21.74GVNEOCPF52
     P22icZp  C2025 09 30.52785905 05 52.050+19 28 27.59   ~CA15 21.84GVNEOCPF52
     P22icZp  C2025 09 30.54000505 05 52.040+19 28 27.52   ~CA15 21.59GVNEOCPF52
     P22icZp  C2025 09 30.55219305 05 52.007+19 28 27.52   ~CA15 21.79GVNEOCPF52
     P22icZp  C2025 09 30.56461705 05 51.994+19 28 27.47   ~CA15 21.90GVNEOCPF52
     P22icZp  C2025 11 23.51266404 58 25.934+19 19 53.59   ~CA15 21.59GVNEOCPF51
     P22icZp  C2025 11 23.52637504 58 25.752+19 19 53.38   ~CA15 22.01GVNEOCPF51
     P22icZp  C2025 11 23.54003104 58 25.561+19 19 53.20   ~CA15 21.62GVNEOCPF51
     P22icZp  C2025 11 23.55365304 58 25.374+19 19 53.21   ~CA15 21.63GVNEOCPF51
     P22icZp* C2025 11 29.36203504 57 05.945+19 18 46.97   ~BTGK 21.53wXNEOCPF52
     P22icZp  C2025 11 29.38657204 57 05.602+19 18 46.57   ~BTGK 21.66wXNEOCPF52
     P22icZp  C2025 11 29.39903004 57 05.402+19 18 46.63   ~BTGK 21.52wXNEOCPF52
     P22icZp 1C2025 12 01.20555004 56 40.260+19 18 26.70   ~C1E5 21.8 RVNEOCP691
     P22icZp 1C2025 12 01.22733004 56 39.930+19 18 26.50   ~C1E5 21.9 RVNEOCP691
     P22icZp 1C2025 12 01.24911004 56 39.650+19 18 26.30   ~C1E5 22.1 RVNEOCP691
     P22icZp  C2025 12 02.28755104 56 25.078+19 18 15.31   ~C295 21.7 GWNEOCPH01
     P22icZp  C2025 12 02.29549104 56 24.965+19 18 15.12   ~C295 21.3 GWNEOCPH01
     P22icZp  C2025 12 02.30918604 56 24.766+19 18 14.91   ~C295 21.8 GWNEOCPH01
     P22icZp DC2025 12 07.41619 04 55 12.81 +19 17 23.1    ~C7E5       VNEOCP695
     P22icZp DC2025 12 07.44428 04 55 12.40 +19 17 22.5    ~C7E5       VNEOCP695
     P22icZp DC2025 12 07.47237 04 55 12.00 +19 17 22.3    ~C7E5       VNEOCP695
     P22icZp  C2025 12 08.23402904 55 01.298+19 17 15.27   ~C86Z 21.4 GWNEOCPH01
     P22icZp  C2025 12 08.24033504 55 01.209+19 17 15.12   ~C86Z 21.2 GWNEOCPH01
     P22icZp  C2025 12 08.25156404 55 01.045+19 17 15.11   ~C86Z 21.4 GWNEOCPH01
     P22icZp  C2025 12 08.25891304 55 00.935+19 17 14.96   ~C86Z 21.1 GWNEOCPH01

Station data:
(691) Steward Observatory, Kitt Peak - Spacewatch  (N31.962174 W111.600327)
   US/Arizona.  Observer J. V. Scotti. 0.9-m f/3 reflector + CCD.
(695) Kitt Peak  (N31.958395 W111.594670)  US/Arizona. Measurer S. Deen.
   2.3-m f/9 reflector + CCD.
(F51) Pan-STARRS 1, Haleakala  (N20.707234 W156.255910)  US/Hawaii.
   Observers J. Herman, T. Lowe, P. Minguez, A. Schultz, I. Smith, J. Bulger,
   K. Chambers. Measurers K. Chambers, T. de Boer, J. Fairlamb, H. Gao, M.
   Huber, C.-C. Lin, E. Magnier, Y. Ramanjooloo, R. Wainscoat, R. Weryk, J.
   Bulger, T. Lowe, P. Minguez, A. Schultz, I. Smith, S. Chastel. 1.8-m
   Ritchey-Chrétien + CCD.
(F52) Pan-STARRS 2, Haleakala  (N20.707382 W156.255910)  US/Hawaii.
   Observers J. Herman, T. Lowe, P. Minguez, A. Schultz, I. Smith, J. Bulger,
   K. Chambers. Measurers K. Chambers, T. de Boer, J. Fairlamb, H. Gao, M.
   Huber, C.-C. Lin, E. Magnier, Y. Ramanjooloo, R. Wainscoat, R. Weryk, J.
   Bulger, T. Lowe, P. Minguez, A. Schultz, I. Smith, S. Chastel. 1.8-m
   Ritchey-Chrétien + CCD.
(H01) Magdalena Ridge Observatory, Socorro  (N33.984833 W107.189333)  US/New
   Mexico.  Observers W. H. Ryan, E. V. Ryan. Measurer W. H. Ryan. 2.4-m
   f/8.9 reflector + CCD.
(V00) Kitt Peak-Bok  (N31.963125 W111.600190)  US/Arizona. Measurers T.
   Beuden, V. F. Carvajal, D. Fay, J. B. Fazekas, D. C. Fuls, A. R. Gibbs, A.
   D. Grauer, H. Gröller, J. K. Hogan, R. A. Kowalski, S. M. Larson, G. J.
   Leonard, D. Rankin, R. L. Seaman, F. C. Shelly, K. W. Wierzchoś, E. C.
   Beshore, E. J. Christensen, A. Serrano. 2.25-m reflector + 4x4K mosaic CCD.

Orbital elements:  P22icZp
   Perihelion 2033 Jan 14.650210 +/- 0.111 TT = 15:36:18.1 (JD 2463612.150210)
Epoch 2025 Dec  8.0 TT = JDT 2461017.5   Ur: 0.9390              AutoNEOCP
M 329.917056761 +/- 0.0044          (J2000 ecliptic)
n   0.011594219 +/- 1.21e-6         Peri.   49.658453 +/- 0.0030
a  19.33340632 +/- 0.00135          Node    93.131836 +/- 0.00032
e   0.40999890 +/- 5.97e-5          Incl.    9.624108 +/- 0.00014
P  85.00854                H 10.46  G  0.15   U  3.7
q 11.40673092 +/- 0.00049    Q 27.26008171 +/- 0.00301
From 35 observations 2022 Oct. 25-2025 Dec. 8; mean residual 0".10
Residuals in arcseconds: 
221025 V00  .19-  .10-    250930 F52  .11+  .03-    251201 691  .26+  .02-    
221025 V00  .05+  .06+    250930 F52  .09-  .01+    251202 H01  .01-  .10+    
221025 V00  .35+  .00     250930 F52  .01-  .00     251202 H01  .01-  .01-    
221025 V00  .15-  .03-    251123 F51  .10-  .06+    251202 H01  .06-  .07-    
231113 V00  .03+  .14-    251123 F51  .01-  .02+    251207 695  .04+  .07+    
231113 V00  .09-  .17+    251123 F51  .07-  .01+    251207 695  .08-  .23-    
250905 F51  .09+  .02+    251123 F51  .08-  .18+    251207 695  .07-  .13-    
250905 F52  .08-  .05+    251129 F52  .15+  .05-    251208 H01  .01+  .08+    
250905 F52  .03-  .08+    251129 F52  .20+  .20-    251208 H01  .03+  .01-    
250905 F52  .11-  .02+    251129 F52  .14-  .00     251208 H01  .00   .09+    
250905 F52  .08+  .09-    251201 691  .14+  .06-    251208 H01  .07-  .00     
250930 F52  .00   .00     251201 691  .15-  .04-    

Ephemerides (geocentric):
Date (UTC) HH   RA             Dec           delta  r     elong  mag " sig PA
---- --------  ------------   ------------  ------ ------ -----  --- --------
2025 12 10 05  04 54 33.416   +19 16 57.01  12.979 13.961 175.2 21.8 .038  74
2025 12 10 06  04 54 32.828   +19 16 56.63  12.979 13.961 175.2 21.8 .038  74
2025 12 10 07  04 54 32.240   +19 16 56.25  12.979 13.961 175.2 21.8 .038  74
2025 12 10 08  04 54 31.653   +19 16 55.88  12.979 13.961 175.1 21.8 .038  74
2025 12 10 09  04 54 31.065   +19 16 55.50  12.979 13.961 175.1 21.8 .038  74
2025 12 10 10  04 54 30.478   +19 16 55.12  12.979 13.961 175.1 21.8 .038  74
2025 12 10 11  04 54 29.890   +19 16 54.75  12.979 13.961 175.0 21.8 .038  74
2025 12 10 12  04 54 29.303   +19 16 54.37  12.979 13.961 175.0 21.8 .038  74
2025 12 10 13  04 54 28.715   +19 16 54.00  12.979 13.960 175.0 21.8 .038  74
2025 12 10 14  04 54 28.128   +19 16 53.62  12.979 13.960 174.9 21.8 .038  74
2025 12 10 15  04 54 27.540   +19 16 53.25  12.979 13.960 174.9 21.8 .038  74
2025 12 10 16  04 54 26.953   +19 16 52.88  12.979 13.960 174.9 21.8 .038  74
2025 12 10 17  04 54 26.366   +19 16 52.50  12.979 13.960 174.8 21.8 .038  74
2025 12 10 18  04 54 25.778   +19 16 52.13  12.979 13.960 174.8 21.8 .038  74
2025 12 10 19  04 54 25.191   +19 16 51.76  12.979 13.960 174.8 21.8 .038  74
2025 12 10 20  04 54 24.604   +19 16 51.39  12.979 13.960 174.7 21.8 .038  74
2025 12 10 21  04 54 24.017   +19 16 51.01  12.979 13.960 174.7 21.8 .038  74
2025 12 10 22  04 54 23.430   +19 16 50.64  12.979 13.960 174.7 21.8 .038  74
2025 12 10 23  04 54 22.842   +19 16 50.27  12.979 13.960 174.6 21.8 .038  74
2025 12 11 00  04 54 22.255   +19 16 49.90  12.979 13.960 174.6 21.8 .038  74
2025 12 11 01  04 54 21.668   +19 16 49.53  12.979 13.960 174.5 21.8 .038  74
2025 12 11 02  04 54 21.081   +19 16 49.16  12.979 13.960 174.5 21.8 .038  74
2025 12 11 03  04 54 20.494   +19 16 48.79  12.979 13.959 174.5 21.8 .038  74
2025 12 11 04  04 54 19.908   +19 16 48.43  12.979 13.959 174.4 21.8 .038  74
2025 12 11 05  04 54 19.321   +19 16 48.06  12.979 13.959 174.4 21.8 .038  74
2025 12 11 06  04 54 18.734   +19 16 47.69  12.979 13.959 174.4 21.8 .038  74
2025 12 11 07  04 54 18.147   +19 16 47.32  12.979 13.959 174.3 21.8 .038  74
2025 12 11 08  04 54 17.560   +19 16 46.96  12.979 13.959 174.3 21.8 .038  74
2025 12 11 09  04 54 16.974   +19 16 46.59  12.979 13.959 174.3 21.8 .038  74
2025 12 11 10  04 54 16.387   +19 16 46.22  12.979 13.959 174.2 21.8 .038  74
2025 12 11 11  04 54 15.800   +19 16 45.86  12.979 13.959 174.2 21.8 .038  74
2025 12 11 12  04 54 15.214   +19 16 45.49  12.979 13.959 174.1 21.8 .038  74
2025 12 11 13  04 54 14.627   +19 16 45.13  12.979 13.959 174.1 21.8 .038  74
2025 12 11 14  04 54 14.041   +19 16 44.76  12.979 13.959 174.1 21.8 .039  74
2025 12 11 15  04 54 13.454   +19 16 44.40  12.979 13.959 174.0 21.8 .039  74
2025 12 11 16  04 54 12.868   +19 16 44.04  12.979 13.959 174.0 21.8 .039  74
2025 12 11 17  04 54 12.281   +19 16 43.67  12.979 13.959 174.0 21.8 .039  74
2025 12 11 18  04 54 11.695   +19 16 43.31  12.979 13.958 173.9 21.8 .039  74
2025 12 11 19  04 54 11.109   +19 16 42.95  12.979 13.958 173.9 21.8 .039  74
2025 12 11 20  04 54 10.523   +19 16 42.59  12.979 13.958 173.8 21.8 .039  74
2025 12 11 21  04 54 09.936   +19 16 42.23  12.979 13.958 173.8 21.8 .039  74
2025 12 11 22  04 54 09.350   +19 16 41.87  12.979 13.958 173.8 21.8 .039  74
2025 12 11 23  04 54 08.764   +19 16 41.51  12.979 13.958 173.7 21.8 .039  74
2025 12 12 00  04 54 08.178   +19 16 41.15  12.979 13.958 173.7 21.8 .039  74
2025 12 12 01  04 54 07.592   +19 16 40.79  12.979 13.958 173.7 21.8 .039  74
2025 12 12 02  04 54 07.006   +19 16 40.43  12.979 13.958 173.6 21.8 .039  74
2025 12 12 03  04 54 06.420   +19 16 40.07  12.979 13.958 173.6 21.8 .039  74
2025 12 12 04  04 54 05.834   +19 16 39.71  12.979 13.958 173.5 21.8 .039  74